Lid_Strength_Index
5 5 4 4 5 6 6 6 5 4 4 3 2 2 2 2 2 3 4 5 5 8 9 8 8 10 11 10 12 13 12 14 15 16 15 16 17 19 20 20 21 22 23 24 24 26 25 19 19 20 18 18 16 18
5 5 5 4 5 5 6 6 6 5 5 4 3 3 3 2 3 2 6 6 5 7 10 10 10 11 11 11 10 12 11 13 13 14 16 17 19 21 20 21 21 20 18 20 20 19 18 18 18 18 17 18 18 19
5 5 5 5 5 5 6 6 6 6 5 5 5 4 3 3 2 2 7 7 7 10 11 11 12 12 11 12 10 12 12 12 14 13 15 16 17 18 21 22 20 18 18 19 18 18 19 19 19 18 18 19 19 18
4 5 5 5 5 5 6 6 7 6 5 5 5 5 4 4 3 6 7 7 6 8 11 14 11 14 12 11 10 11 12 12 12 13 15 16 16 15 18 19 19 17 17 18 20 19 20 20 19 19 19 19 18 17
3 4 4 5 5 5 6 6 6 6 5 5 4 5 4 5 6 7 8 8 7 8 13 15 15 14 13 11 11 11 12 13 14 15 16 16 15 16 17 18 20 17 17 18 19 19 19 19 19 19 19 19 18 17
2 3 4 4 4 4 5 6 6 5 6 5 5 5 5 6 6 8 11 9 9 9 13 16 16 16 13 12 13 13 13 13 14 15 15 15 15 15 18 21 17 18 19 19 19 19 19 19 19 19 19 18 17 17
1 1 3 4 4 4 5 5 5 6 6 6 5 5 5 7 9 11 12 10 9 9 13 19 19 17 16 14 15 14 14 15 14 15 16 17 17 16 18 20 19 19 20 20 19 19 20 19 19 19 18 18 17 18
0 0 1 2 4 5 4 4 5 5 5 5 5 5 6 7 8 11 10 9 9 11 12 18 22 20 16 17 18 16 16 16 16 17 17 18 18 17 19 18 19 20 20 20 19 19 19 19 19 19 18 18 19 19
-0 0 0 1 3 5 5 4 4 5 5 5 5 6 9 11 12 12 9 8 9 10 14 16 20 22 17 17 16 16 16 19 18 20 19 18 20 20 17 18 20 20 19 19 19 19 19 19 19 19 19 19 20 20
-0 -0 0 1 2 3 4 3 5 4 4 5 8 11 13 12 9 9 10 12 13 14 14 17 17 19 17 17 18 18 18 20 26 21 19 21 20 18 18 19 19 18 18 18 20 19 19 19 19 20 20 20 19 19
-0 -0 0 0 2 2 3 3 4 4 6 9 12 14 12 9 11 13 14 14 16 16 15 18 18 19 16 18 18 16 19 21 26 22 21 23 22 20 19 20 19 19 19 19 18 18 18 19 21 20 20 19 19 19
-0 -0 -0 0 1 2 2 3 3 6 8 9 11 10 11 13 15 15 19 19 20 18 17 18 17 17 17 15 18 18 20 21 25 19 22 23 19 19 19 19 19 19 18 18 18 18 19 19 20 21 20 21 20 19
-1 -1 -1 -1 1 2 1 2 2 4 5 8 11 14 15 16 17 18 22 23 21 19 17 17 18 17 17 16 18 19 22 22 19 22 22 19 18 18 19 19 19 18 18 18 18 18 19 20 19 20 22 20 21 22
-1 -1 -1 -1 -0 1 1 1 2 3 6 10 13 15 16 19 18 17 17 18 17 17 16 17 18 17 17 18 19 21 20 20 24 25 22 20 19 19 18 18 18 19 19 19 22 22 21 21 22 20 21 23 24 23
-1 -1 -1 -1 -1 0 1 1 1 5 8 10 11 15 16 17 18 20 19 18 17 15 17 17 17 17 19 19 19 20 22 24 21 20 19 22 21 20 20 21 21 22 23 25 25 26 27 27 25 23 24 25 23 22
-1 -1 0 -1 -1 -0 0 2 6 7 10 11 13 17 15 17 20 18 18 17 16 17 16 15 18 18 20 19 23 21 21 21 18 20 23 22 21 22 22 22 23 26 27 27 27 28 27 28 28 28 27 27 26 23
-1 3 -1 -1 -1 0 3 7 8 12 12 14 19 15 17 18 18 17 15 14 13 13 15 15 17 18 18 20 22 19 20 18 20 21 19 20 20 22 23 22 23 24 26 28 30 30 30 29 31 30 27 27 26 25
4 2 -1 1 4 5 9 10 12 14 17 20 19 18 16 16 16 16 15 14 13 14 15 16 16 18 18 20 20 18 19 19 18 18 18 20 21 22 22 23 24 25 26 27 28 29 29 28 26 26 27 25 23 24
1 1 1 2 4 9 12 13 13 17 19 18 17 15 15 15 15 15 14 13 14 13 14 15 16 19 17 17 17 18 18 17 19 20 21 23 23 24 25 26 25 26 27 28 25 25 25 26 26 25 24 20 22 23
0 1 3 4 5 10 14 16 16 19 22 18 17 17 17 18 17 16 16 15 14 14 16 17 17 17 18 18 18 18 18 19 19 20 21 22 25 25 22 22 23 24 25 26 25 19 22 23 22 22 21 18 20 21
5 6 6 9 12 13 16 17 18 19 18 20 19 19 20 19 20 21 19 15 15 22 23 23 22 20 20 20 19 19 21 20 22 22 21 22 22 21 22 22 22 21 22 22 23 22 20 22 21 18 19 18 17 18
7 5 9 9 13 16 18 18 19 20 20 21 20 19 22 24 25 23 20 20 23 23 23 22 18 19 20 21 22 22 22 22 22 19 17 17 21 20 21 20 21 22 22 21 20 21 20 19 17 17 18 17 16 16
7 8 10 11 15 16 18 15 17 23 21 23 24 26 26 27 25 20 23 23 22 22 19 18 19 19 20 21 21 21 21 20 20 20 19 21 21 19 19 21 21 22 21 20 19 20 20 16 17 17 18 18 18 18
9 14 17 19 19 24 21 23 20 21 21 21 22 22 21 20 18 19 20 21 19 18 18 19 19 20 20 21 21 21 20 20 21 22 22 22 21 22 22 22 23 22 20 20 20 20 20 19 16 18 19 21 21 21
14 18 16 18 20 21 23 22 21 20 21 19 21 23 21 20 21 24 24 23 20 20 19 19 19 19 20 21 21 20 21 21 22 22 23 23 22 21 20 21 22 22 20 21 21 21 21 20 21 21 21 21 23 24
21 22 22 22 21 21 22 23 22 21 21 23 23 22 23 22 23 24 24 24 22 21 20 19 19 20 21 21 22 22 22 21 21 22 22 21 22 22 24 22 22 21 20 21 21 21 21 20 21 23 22 21 16 23
23 23 21 18 18 18 19 19 19 20 24 25 23 22 23 25 26 26 24 25 24 23 22 21 21 22 22 21 20 20 21 22 22 22 21 20 20 20 19 20 20 19 19 19 19 19 20 20 21 21 22 23 23 24
26 25 25 26 23 23 21 22 22 24 23 22 21 26 26 26 26 26 25 24 24 23 23 23 22 21 21 21 21 21 23 23 23 22 21 20 20 20 20 19 19 15 16 17 17 18 18 18 18 20 21 22 23 22
25 24 23 28 27 27 29 28 27 25 24 26 26 27 27 26 25 26 23 23 24 24 24 24 25 26 26 25 24 24 23 23 22 23 23 22 21 20 19 19 20 20 20 19 13 13 17 18 18 20 21 20 19 19
28 27 29 33 31 32 31 28 29 26 23 25 24 25 25 26 26 24 25 26 27 28 29 29 29 31 28 26 25 23 21 22 21 20 21 21 19 17 17 18 18 19 19 18 16 16 10 14 14 18 18 18 18 19
27 29 30 29 31 31 30 28 28 24 29 32 31 30 28 28 25 24 25 26 27 29 29 29 28 27 24 23 24 22 21 20 20 19 18 17 16 15 15 17 17 17 18 18 18 18 18 18 19 19 19 20 19 18
28 34 29 29 30 31 32 33 34 34 34 32 32 32 30 29 30 28 27 30 30 29 23 26 25 23 21 21 21 21 16 19 19 18 18 16 15 13 14 14 16 16 16 17 17 16 17 19 19 18 18 19 19 19
34 34 34 31 31 30 30 31 30 31 31 32 31 32 33 29 28 27 28 28 26 25 25 24 24 22 23 23 21 20 17 18 17 11 10 9 8 9 17 16 15 16 16 16 17 17 17 18 18 18 18 18 18 18